Showing default

SNUGLITE, 43784

Orbit data source: Space-Track

SNUGLITE, 43784 is a payload satellite owned by SNU (KR) in SSO that was launched on Mon, 03 Dec 2018 UTC via an FALCON 9 launch vehicle from the Air Force Western Test Range (AFWTR). Payload-class satellites include a variety of spacecraft equipped with specific instruments for various scientific and technological missions. These include communications satellites like Starlink; space stations such as the ISS; scientific satellites like the Hubble; Earth observation satellites from companies like Planet Labs, Umbra, and HawkEye 360; GPS; miniature CubeSats for education and research; and military/defense satellites.

Loading next visibility...
Identifier
43784, 2018-099AC
Orbit
SSO
Last TLE update
7 hours ago
Origin
Manufacturer
SNU
Mission
Operational Amateur Technology
Bus & Motor
CUBESAT 2U, Unknown motor
Mass
2 kg wet, 2 kg dry
Launch date (UTC)
2018-12-03 (7 years ago)
Launch vehicle
FALCON 9
Launch site
Air Force Western Test Range (AFWTR)
Object type
Payload
Rocket body
Debris
Shape & HBR
Box + 1 Rod, 0.4 m
Radar Cross Section
0.025 m², Small (<0.1 m²)

Expand to show TLE details & history

TLE from 7 hours ago
0 SNUGLITE
1 43784U 18099AC  25186.65476614  .00007208  00000-0  35810-3 0  9991
2 43784  97.4399 240.6078 0004933  77.4724 282.7062 15.17950603360593
Epoch: 2025-07-05T15:42Z
TLE epoch observation values (Epoch: 2025-07-05T15:42:51.794Z)
Latitude
0.00003°
Longitude
81.00229°
Altitude
514.376 km
Speed
7.607 km/s
True Right ascension
16h 02m 25s
True Declination
0° 00' 00"
Sunlit
Object was in full shadow at epoch
Visualization orbit readout
Latitude
-57.62938°
Longitude
-110.51779°
Altitude
537.6 km
Speed
7.591 km/s
Apparent Right ascension
00h 49m 23s
Apparent Declination
-53° 24' 45"
Sunlit
Object is in daylight
Visualization observer readout
Local Sidereal Time
11:01:36
Azimuth
224.494° SW
Elevation
-67.332°
Doppler factor
1
Orbital elements
Apogee altitude
512.403 km
Perigee altitude
505.608 km
Semi-major axis
6,887.142 km
Eccentricity
0.00049
Inclination
97.4399°
RAAN
240.6078°
Arg. of periapsis
77.4724°
True anomaly
Unknown
Mean anomaly
282.7062°
Eccentric anomaly
Unknown
Mean motion
3.79738 °/min
Orbital period
94.8 mins
BSTAR
0.0003581
Loading maneuver chart data...
Loading SW <> Apogee altitude chart data...
Loading historical data...
Loading historical data...
Loading historical data...
Loading historical data...
Loading historical data...
Loading historical data...
Loading historical data...

SNUGLITE Visibility forecast

Observer location: undefined°, undefined°

Span
Click to sort rows by Start time (UTC) header in descending order
Start Az.
Max El. time (UTC)
Max El. Az.
Max El.
End time (UTC)
End Az.
5 mins2025-07-06 02:56:18.760Z116.801° SE2025-07-06 02:58:18.760Z76.593° E22.17°2025-07-06 03:01:18.760Z17.872° NNE
4 mins2025-07-06 16:02:18.760Z52.188° ENE2025-07-06 16:03:18.760Z80.407° E29.758°2025-07-06 16:06:18.760Z159.474° S
|